When you browse on this site, cookies collect data to enhance your experience and personalize the content and advertising you see.
Visit our Privacy Policy to learn more. By continuing to use the site, you agree to this use of cookies and data.
  • In Portugal
  • List of Countries
  • For 7 days
  • Water Temperature
  • Weather Map
  • Weather Widgets
  • user-avatar
    Login

    Hourly Weather Hillerod

    Today, 6 December, Friday

    Time Temperature Precipitation Wind Pressure Humidity
    00:00 +3°C° 0.3 mm 11 mps 748 mmHg 82%
    01:00 +2°C° 0.3 mm 12 mps 747 mmHg 83%
    02:00 +3°C° 0.2 mm 12 mps 746 mmHg 83%
    03:00 +4°C° 0.2 mm 12 mps 745 mmHg 84%
    04:00 +4°C° 0.2 mm 13 mps 744 mmHg 85%
    05:00 +5°C° 0.2 mm 13 mps 744 mmHg 86%
    06:00 +7°C° 0.2 mm 12 mps 744 mmHg 87%
    07:00 +7°C° 0.2 mm 12 mps 743 mmHg 87%
    08:00 +7°C° 0.1 mm 11 mps 744 mmHg 87%
    09:00 +8°C° 0.1 mm 11 mps 744 mmHg 87%
    10:00 +8°C° 0.1 mm 10 mps 744 mmHg 87%
    11:00 +8°C° 0.1 mm 10 mps 744 mmHg 87%
    12:00 +8°C° 0.1 mm 10 mps 744 mmHg 88%
    13:00 +8°C° 0.1 mm 9 mps 744 mmHg 88%
    14:00 +8°C° 0 mm 9 mps 744 mmHg 88%
    15:00 +7°C° 0 mm 9 mps 743 mmHg 88%
    16:00 +7°C° 0 mm 8 mps 743 mmHg 88%
    17:00 +7°C° 0.1 mm 9 mps 743 mmHg 88%
    18:00 +7°C° 0.1 mm 9 mps 743 mmHg 88%
    19:00 +7°C° 0.1 mm 9 mps 742 mmHg 88%
    20:00 +7°C° 0.2 mm 9 mps 742 mmHg 88%
    21:00 +6°C° 0.2 mm 9 mps 742 mmHg 89%
    22:00 +6°C° 0.2 mm 9 mps 741 mmHg 90%
    23:00 +6°C° 0.2 mm 9 mps 741 mmHg 89%

    Tomorrow, 7 December, Saturday

    Time Temperature Precipitation Wind Pressure Humidity
    00:00 +6°C° 0.2 mm 9 mps 741 mmHg 89%
    01:00 +7°C° 0.2 mm 9 mps 740 mmHg 88%
    02:00 +6°C° 0.1 mm 8 mps 740 mmHg 89%
    03:00 +6°C° 0.1 mm 8 mps 740 mmHg 90%
    04:00 +6°C° 0.1 mm 7 mps 740 mmHg 91%
    05:00 +6°C° 0 mm 7 mps 740 mmHg 90%
    06:00 +6°C° 0 mm 7 mps 740 mmHg 89%
    07:00 +6°C° 0 mm 8 mps 741 mmHg 88%
    08:00 +6°C° 0 mm 8 mps 741 mmHg 85%
    09:00 +6°C° 0 mm 8 mps 742 mmHg 81%
    10:00 +5°C° 0 mm 8 mps 742 mmHg 78%
    11:00 +5°C° 0 mm 8 mps 743 mmHg 74%
    12:00 +5°C° 0 mm 8 mps 743 mmHg 70%
    13:00 +5°C° 0 mm 8 mps 744 mmHg 66%
    14:00 +3°C° 0 mm 9 mps 744 mmHg 67%
    15:00 +3°C° 0 mm 9 mps 744 mmHg 67%
    16:00 +3°C° 0 mm 9 mps 745 mmHg 68%
    17:00 +3°C° 0 mm 9 mps 745 mmHg 68%
    18:00 +2°C° 0 mm 8 mps 746 mmHg 68%
    19:00 +2°C° 0 mm 8 mps 746 mmHg 69%
    20:00 +2°C° 0.1 mm 8 mps 746 mmHg 73%
    21:00 +2°C° 0.1 mm 8 mps 746 mmHg 78%
    22:00 +3°C° 0.1 mm 7 mps 746 mmHg 82%
    23:00 +3°C° 0.1 mm 7 mps 746 mmHg 83%

    Day after tomorrow, 8 December, Sunday

    Time Temperature Precipitation Wind Pressure Humidity
    00:00 +3°C° 0.1 mm 6 mps 746 mmHg 84%
    01:00 +3°C° 0.1 mm 5 mps 746 mmHg 84%
    02:00 +3°C° 0 mm 5 mps 745 mmHg 86%
    03:00 +3°C° 0 mm 5 mps 745 mmHg 88%
    04:00 +4°C° 0 mm 4 mps 744 mmHg 91%
    05:00 +3°C° 0.3 mm 5 mps 744 mmHg 91%
    06:00 +4°C° 0.3 mm 6 mps 743 mmHg 92%
    07:00 +4°C° 0.3 mm 7 mps 742 mmHg 93%
    08:00 +4°C° 1.4 mm 8 mps 741 mmHg 92%
    09:00 +3°C° 1.4 mm 9 mps 739 mmHg 91%
    10:00 +5°C° 1.4 mm 10 mps 738 mmHg 90%
    11:00 +4°C° 0.8 mm 11 mps 737 mmHg 89%
    12:00 +4°C° 0.8 mm 12 mps 736 mmHg 87%
    13:00 +5°C° 0.8 mm 12 mps 735 mmHg 86%
    14:00 +6°C° 0.2 mm 11 mps 735 mmHg 82%
    15:00 +6°C° 0.2 mm 10 mps 735 mmHg 79%
    16:00 +6°C° 0.2 mm 9 mps 735 mmHg 75%
    17:00 +5°C° 0 mm 9 mps 736 mmHg 76%
    18:00 +5°C° 0 mm 9 mps 736 mmHg 76%
    19:00 +3°C° 0 mm 9 mps 736 mmHg 77%
    20:00 +3°C° 0.1 mm 9 mps 736 mmHg 79%
    21:00 +3°C° 0.1 mm 9 mps 735 mmHg 80%
    22:00 +3°C° 0.1 mm 10 mps 735 mmHg 82%
    23:00 +3°C° 0.1 mm 9 mps 735 mmHg 80%

    9 December, Monday

    Time Temperature Precipitation Wind Pressure Humidity
    00:00 +3°C° 0.1 mm 9 mps 735 mmHg 79%
    01:00 +3°C° 0.1 mm 9 mps 734 mmHg 77%
    02:00 +3°C° 0.1 mm 9 mps 734 mmHg 78%
    03:00 +2°C° 0.1 mm 8 mps 734 mmHg 79%
    04:00 +2°C° 0.1 mm 8 mps 734 mmHg 80%
    05:00 +3°C° 0 mm 7 mps 734 mmHg 80%
    06:00 +3°C° 0 mm 7 mps 734 mmHg 81%
    07:00 +3°C° 0 mm 6 mps 734 mmHg 82%
    08:00 +3°C° 0 mm 7 mps 734 mmHg 83%
    09:00 +3°C° 0 mm 7 mps 734 mmHg 85%
    10:00 +3°C° 0 mm 7 mps 735 mmHg 86%
    11:00 +3°C° 0.4 mm 6 mps 735 mmHg 88%
    12:00 +3°C° 0.4 mm 5 mps 735 mmHg 89%
    13:00 +4°C° 0.4 mm 4 mps 735 mmHg 90%
    14:00 +4°C° 0.3 mm 3 mps 735 mmHg 90%
    15:00 +5°C° 0.3 mm 2 mps 735 mmHg 91%
    16:00 +5°C° 0.3 mm 2 mps 736 mmHg 91%
    17:00 +5°C° 0.4 mm 2 mps 736 mmHg 91%
    18:00 +5°C° 0.4 mm 2 mps 737 mmHg 91%
    19:00 +5°C° 0.4 mm 2 mps 737 mmHg 92%
    20:00 +3°C° 0 mm 3 mps 738 mmHg 91%
    21:00 +3°C° 0 mm 3 mps 739 mmHg 91%
    22:00 +3°C° 0 mm 3 mps 740 mmHg 90%
    23:00 +2°C° 0.2 mm 5 mps 741 mmHg 91%

    10 December, Tuesday

    Time Temperature Precipitation Wind Pressure Humidity
    00:00 +2°C° 0.2 mm 6 mps 742 mmHg 91%
    01:00 +1°C° 0.2 mm 8 mps 743 mmHg 91%
    02:00 0°C° 0.1 mm 9 mps 745 mmHg 82%
    03:00 0°C° 0.1 mm 9 mps 746 mmHg 72%
    04:00 -2°C° 0.1 mm 10 mps 748 mmHg 63%
    05:00 -1°C° 0 mm 9 mps 749 mmHg 60%
    06:00 -3°C° 0 mm 9 mps 750 mmHg 57%
    07:00 -2°C° 0 mm 8 mps 752 mmHg 54%
    08:00 -2°C° 0 mm 7 mps 753 mmHg 55%
    09:00 -2°C° 0 mm 6 mps 754 mmHg 55%
    10:00 -1°C° 0 mm 5 mps 755 mmHg 55%
    11:00 0°C° 0 mm 5 mps 755 mmHg 53%
    12:00 0°C° 0 mm 4 mps 755 mmHg 51%
    13:00 +1°C° 0 mm 3 mps 756 mmHg 49%
    14:00 +1°C° 0 mm 3 mps 756 mmHg 51%
    15:00 +1°C° 0 mm 2 mps 756 mmHg 52%
    16:00 +1°C° 0 mm 2 mps 756 mmHg 54%
    17:00 0°C° 0 mm 3 mps 756 mmHg 55%
    18:00 0°C° 0 mm 3 mps 756 mmHg 57%
    19:00 -1°C° 0 mm 4 mps 756 mmHg 59%
    20:00 -1°C° 0 mm 5 mps 755 mmHg 60%
    21:00 -1°C° 0 mm 6 mps 754 mmHg 62%
    22:00 -1°C° 0 mm 7 mps 754 mmHg 63%
    23:00 -1°C° 0 mm 8 mps 753 mmHg 61%

    11 December, Wednesday

    Time Temperature Precipitation Wind Pressure Humidity
    00:00 -1°C° 0 mm 9 mps 752 mmHg 59%
    01:00 0°C° 0 mm 10 mps 751 mmHg 57%
    02:00 0°C° 0.1 mm 10 mps 749 mmHg 64%
    03:00 -2°C° 0.1 mm 11 mps 748 mmHg 72%
    04:00 -2°C° 0.1 mm 12 mps 746 mmHg 79%
    05:00 -2°C° 1.2 mm 11 mps 745 mmHg 84%
    06:00 -1°C° 1.2 mm 11 mps 744 mmHg 90%
    07:00 0°C° 1.2 mm 10 mps 743 mmHg 95%
    08:00 +1°C° 0.2 mm 9 mps 743 mmHg 92%
    09:00 +1°C° 0.2 mm 9 mps 743 mmHg 90%
    10:00 +2°C° 0.2 mm 8 mps 743 mmHg 87%
    11:00 +3°C° 0 mm 7 mps 743 mmHg 84%
    12:00 +3°C° 0 mm 7 mps 743 mmHg 82%
    13:00 +4°C° 0 mm 7 mps 743 mmHg 79%
    14:00 +3°C° 0.2 mm 7 mps 743 mmHg 80%
    15:00 +3°C° 0.2 mm 7 mps 743 mmHg 81%
    16:00 +2°C° 0.2 mm 8 mps 743 mmHg 82%
    17:00 +1°C° 0.1 mm 8 mps 742 mmHg 82%
    18:00 +2°C° 0.1 mm 7 mps 742 mmHg 82%
    19:00 +2°C° 0.1 mm 7 mps 742 mmHg 82%
    20:00 +2°C° 0 mm 7 mps 741 mmHg 82%
    21:00 +1°C° 0 mm 8 mps 741 mmHg 83%
    22:00 +1°C° 0 mm 8 mps 740 mmHg 83%
    23:00 +1°C° 0.7 mm 9 mps 739 mmHg 82%
    Show more